Home   Weather   Salta   Past weeks

Flag for Argentina Past Weather in Salta, Salta, Argentina — Yesterday and Last 2 Weeks

Now
63 °F

Passing clouds.


Feels Like: 63 °F
Forecast: N/A
Wind: 8 mph from Northeast

Location: Salta Aerodrome

Current Time: Apr 29, 2017 at 8:16:35 pm

Latest Report: Apr 29, 2017 at 7:00 pm


Visibility: N/A

Pressure: 30.18 "Hg (26.25 "Hg at 1184m altitude)

Humidity: 56%

Dew Point: 46 °F

Location of SaltaLocation

Past Weather in Salta — Graph

°F

Salta Temperature Yesterday

Maximum temperature yesterday: 72 °F (at 4:00 pm)
Minimum temperature yesterday: 37 °F (at 7:00 am)
Average temperature yesterday: 52 °F

High & Low Weather Summary for the Past Weeks

 TemperatureHumidityPressure
High77 °F (Apr 24, 4:00 pm)100% (Apr 16, 10:00 am)30.30 "Hg (Apr 16, 10:00 am)
Low37 °F (Apr 28, 7:00 am)31% (Apr 27, 6:00 pm)29.62 "Hg (Apr 25, 3:00 pm)
Average58 °F83%30.08 "Hg
* Reported Apr 14 7:00 pm — Apr 29 7:00 pm, Salta, Weather by CustomWeather, © 2017

Note: Actual official high and low records may vary slightly from our data, if they occured in-between our weather recording intervals... More about our weather records

Advertising

Salta Weather History for the Previous 24 Hours

Scroll right to see more
 ConditionsComfort  
Time TempWeatherWind HumidityBarometerVisibility
7:00 pm
Sat, Apr 29
63 °FPassing clouds.8 mph56%30.18 "HgN/A
6:00 pm68 °FPassing clouds.10 mph53%30.15 "HgN/A
5:00 pm72 °FPassing clouds.8 mph44%30.12 "HgN/A
4:00 pm73 °FPassing clouds.7 mph41%30.12 "HgN/A
3:00 pm72 °FSunny.6 mph41%30.12 "Hg10 mi
2:00 pm70 °FSunny.3 mph46%30.15 "Hg10 mi
1:00 pm68 °FSunny.3 mph46%30.18 "Hg10 mi
12:00 pm64 °FSunny.2 mph52%30.21 "Hg10 mi
11:00 am57 °FSunny.2 mph67%30.24 "Hg10 mi
10:00 am54 °FSunny.2 mph82%30.24 "HgN/A
9:00 am46 °FSunny.No wind93%30.24 "HgN/A
8:00 am41 °FSunny.No wind93%30.21 "Hg10 mi
7:00 am41 °FFog.No wind93%30.21 "HgN/A
6:00 am41 °FClear.3 mph100%30.18 "Hg10 mi
5:00 am45 °FClear.2 mph93%30.18 "Hg10 mi
4:00 am45 °FClear.5 mph93%30.21 "Hg10 mi
3:00 am43 °FClear.No wind93%30.21 "Hg10 mi
2:00 am45 °FClear.No wind87%30.21 "Hg10 mi
1:00 am46 °FClear.2 mph87%30.24 "Hg10 mi
12:00 am48 °FClear.3 mph87%30.24 "Hg10 mi
11:00 pm
Fri, Apr 28
48 °FClear.No wind87%30.27 "Hg10 mi
10:00 pm50 °FClear.5 mph88%30.24 "Hg10 mi
9:00 pm55 °FClear.6 mph67%30.21 "Hg10 mi
8:00 pm57 °FClear.5 mph63%30.18 "Hg10 mi
Weather by CustomWeather, © 2017

See weather overviewHow to use our weather pages